• In Deutschland
  • Länderverzeichnis
  • Für 7 Tage
  • Wassertemperatur
  • Satellitenkarten
  • Wetterkarte
  • Widgets
  • user-avatar
    Anmelden

    Stündliche Wetter Tirana

    Heute, 11 Dezember, Montag

    Zeit Temperatur Niederschläge Wind Luftdruck Luftfeuchtigkeit
    00:00 +2°C° 0 mm 6 m/S 757 mmHg 74%
    01:00 +3°C° 0 mm 7 m/S 757 mmHg 69%
    02:00 +3°C° 0 mm 7 m/S 757 mmHg 69%
    03:00 +3°C° 0 mm 7 m/S 757 mmHg 68%
    04:00 +4°C° 0 mm 7 m/S 757 mmHg 68%
    05:00 +4°C° 0 mm 7 m/S 757 mmHg 68%
    06:00 +4°C° 0 mm 7 m/S 757 mmHg 68%
    07:00 +4°C° 0 mm 7 m/S 756 mmHg 69%
    08:00 +6°C° 0 mm 7 m/S 756 mmHg 67%
    09:00 +9°C° 0 mm 7 m/S 756 mmHg 65%
    10:00 +10°C° 0 mm 7 m/S 756 mmHg 63%
    11:00 +11°C° 0 mm 8 m/S 756 mmHg 63%
    12:00 +12°C° 0 mm 8 m/S 756 mmHg 63%
    13:00 +12°C° 0 mm 8 m/S 756 mmHg 62%
    14:00 +11°C° 0 mm 8 m/S 756 mmHg 68%
    15:00 +10°C° 0 mm 8 m/S 756 mmHg 74%
    16:00 +9°C° 0 mm 8 m/S 756 mmHg 80%
    17:00 +9°C° 0 mm 8 m/S 756 mmHg 80%
    18:00 +9°C° 0 mm 8 m/S 756 mmHg 80%
    19:00 +7°C° 0 mm 8 m/S 756 mmHg 80%
    20:00 +7°C° 0 mm 8 m/S 756 mmHg 80%
    21:00 +7°C° 0 mm 8 m/S 756 mmHg 79%
    22:00 +7°C° 0 mm 8 m/S 757 mmHg 79%
    23:00 +7°C° 0 mm 8 m/S 757 mmHg 79%

    Morgen, 12 Dezember, Dienstag

    Zeit Temperatur Niederschläge Wind Luftdruck Luftfeuchtigkeit
    00:00 +7°C° 0 mm 8 m/S 757 mmHg 79%
    01:00 +9°C° 0 mm 8 m/S 757 mmHg 80%
    02:00 +9°C° 0 mm 7 m/S 757 mmHg 79%
    03:00 +9°C° 0 mm 7 m/S 757 mmHg 79%
    04:00 +9°C° 0 mm 7 m/S 757 mmHg 79%
    05:00 +9°C° 0 mm 7 m/S 757 mmHg 80%
    06:00 +9°C° 0 mm 6 m/S 757 mmHg 80%
    07:00 +9°C° 0 mm 6 m/S 757 mmHg 81%
    08:00 +10°C° 0 mm 6 m/S 757 mmHg 79%
    09:00 +11°C° 0 mm 6 m/S 758 mmHg 78%
    10:00 +13°C° 0 mm 6 m/S 758 mmHg 76%
    11:00 +14°C° 0 mm 6 m/S 758 mmHg 75%
    12:00 +15°C° 0 mm 6 m/S 758 mmHg 75%
    13:00 +15°C° 0 mm 6 m/S 757 mmHg 74%
    14:00 +15°C° 0 mm 6 m/S 757 mmHg 77%
    15:00 +14°C° 0 mm 6 m/S 758 mmHg 80%
    16:00 +13°C° 0 mm 5 m/S 758 mmHg 84%
    17:00 +13°C° 0 mm 5 m/S 758 mmHg 85%
    18:00 +12°C° 0 mm 5 m/S 758 mmHg 86%
    19:00 +12°C° 0 mm 5 m/S 758 mmHg 87%
    20:00 +10°C° 0 mm 5 m/S 759 mmHg 86%
    21:00 +10°C° 0 mm 5 m/S 759 mmHg 86%
    22:00 +10°C° 0 mm 5 m/S 759 mmHg 86%
    23:00 +10°C° 0 mm 5 m/S 759 mmHg 85%

    übermorgen, 13 Dezember, Mittwoch

    Zeit Temperatur Niederschläge Wind Luftdruck Luftfeuchtigkeit
    00:00 +9°C° 0 mm 5 m/S 759 mmHg 85%
    01:00 +9°C° 0 mm 5 m/S 759 mmHg 85%
    02:00 +9°C° 0 mm 5 m/S 759 mmHg 85%
    03:00 +9°C° 0 mm 5 m/S 759 mmHg 84%
    04:00 +9°C° 0 mm 5 m/S 758 mmHg 84%
    05:00 +9°C° 0 mm 5 m/S 758 mmHg 84%
    06:00 +9°C° 0 mm 6 m/S 758 mmHg 83%
    07:00 +9°C° 0 mm 6 m/S 758 mmHg 83%
    08:00 +10°C° 0 mm 6 m/S 758 mmHg 79%
    09:00 +13°C° 0 mm 6 m/S 758 mmHg 75%
    10:00 +14°C° 0 mm 6 m/S 758 mmHg 71%
    11:00 +15°C° 0 mm 6 m/S 758 mmHg 68%
    12:00 +15°C° 0 mm 6 m/S 757 mmHg 66%
    13:00 +16°C° 0 mm 7 m/S 757 mmHg 63%
    14:00 +15°C° 0,1 mm 6 m/S 757 mmHg 69%
    15:00 +14°C° 0,1 mm 6 m/S 756 mmHg 74%
    16:00 +13°C° 0,1 mm 6 m/S 756 mmHg 80%
    17:00 +13°C° 0,4 mm 5 m/S 756 mmHg 81%
    18:00 +12°C° 0,4 mm 5 m/S 756 mmHg 83%
    19:00 +12°C° 0,4 mm 5 m/S 756 mmHg 85%
    20:00 +12°C° 1,2 mm 5 m/S 757 mmHg 87%
    21:00 +12°C° 1,2 mm 4 m/S 757 mmHg 89%
    22:00 +11°C° 1,2 mm 4 m/S 757 mmHg 90%
    23:00 +11°C° 1,4 mm 4 m/S 756 mmHg 92%

    14 Dezember, Donnerstag

    Zeit Temperatur Niederschläge Wind Luftdruck Luftfeuchtigkeit
    00:00 +11°C° 1,4 mm 4 m/S 756 mmHg 94%
    01:00 +11°C° 1,4 mm 3 m/S 756 mmHg 96%
    02:00 +11°C° 0,4 mm 3 m/S 756 mmHg 96%
    03:00 +11°C° 0,4 mm 3 m/S 756 mmHg 95%
    04:00 +11°C° 0,4 mm 3 m/S 756 mmHg 95%
    05:00 +10°C° 0 mm 3 m/S 756 mmHg 95%
    06:00 +10°C° 0 mm 2 m/S 756 mmHg 94%
    07:00 +9°C° 0 mm 2 m/S 757 mmHg 94%
    08:00 +10°C° 0 mm 2 m/S 757 mmHg 88%
    09:00 +12°C° 0 mm 2 m/S 757 mmHg 81%
    10:00 +13°C° 0 mm 2 m/S 757 mmHg 75%
    11:00 +13°C° 0 mm 2 m/S 756 mmHg 72%
    12:00 +13°C° 0 mm 2 m/S 756 mmHg 68%
    13:00 +13°C° 0 mm 3 m/S 756 mmHg 65%
    14:00 +13°C° 0 mm 2 m/S 756 mmHg 69%
    15:00 +12°C° 0 mm 2 m/S 756 mmHg 72%
    16:00 +12°C° 0 mm 2 m/S 756 mmHg 75%
    17:00 +10°C° 0 mm 2 m/S 756 mmHg 77%
    18:00 +9°C° 0 mm 3 m/S 756 mmHg 79%
    19:00 +9°C° 0 mm 3 m/S 756 mmHg 81%
    20:00 +8°C° 0 mm 3 m/S 756 mmHg 80%
    21:00 +7°C° 0 mm 4 m/S 756 mmHg 78%
    22:00 +7°C° 0 mm 4 m/S 756 mmHg 76%
    23:00 +7°C° 0 mm 4 m/S 756 mmHg 74%

    15 Dezember, Freitag

    Zeit Temperatur Niederschläge Wind Luftdruck Luftfeuchtigkeit
    00:00 +7°C° 0 mm 4 m/S 755 mmHg 73%
    01:00 +7°C° 0 mm 4 m/S 755 mmHg 71%
    02:00 +7°C° 0 mm 4 m/S 755 mmHg 71%
    03:00 +7°C° 0 mm 4 m/S 754 mmHg 71%
    04:00 +7°C° 0 mm 4 m/S 754 mmHg 71%
    05:00 +7°C° 0 mm 5 m/S 754 mmHg 71%
    06:00 +7°C° 0 mm 5 m/S 754 mmHg 71%
    07:00 +7°C° 0 mm 5 m/S 754 mmHg 71%
    08:00 +8°C° 0 mm 6 m/S 754 mmHg 68%
    09:00 +10°C° 0 mm 6 m/S 753 mmHg 64%
    10:00 +12°C° 0 mm 7 m/S 753 mmHg 60%
    11:00 +12°C° 0 mm 8 m/S 752 mmHg 62%
    12:00 +13°C° 0 mm 9 m/S 752 mmHg 64%
    13:00 +14°C° 0 mm 10 m/S 751 mmHg 65%
    14:00 +13°C° 0 mm 10 m/S 751 mmHg 71%
    15:00 +12°C° 0 mm 10 m/S 750 mmHg 77%
    16:00 +12°C° 0 mm 10 m/S 750 mmHg 83%
    17:00 +11°C° 0,1 mm 10 m/S 750 mmHg 84%
    18:00 +9°C° 0,1 mm 10 m/S 750 mmHg 85%
    19:00 +9°C° 0,1 mm 10 m/S 750 mmHg 87%
    20:00 +10°C° 0,2 mm 9 m/S 750 mmHg 86%
    21:00 +10°C° 0,2 mm 9 m/S 750 mmHg 86%
    22:00 +10°C° 0,2 mm 9 m/S 750 mmHg 86%
    23:00 +10°C° 0,6 mm 9 m/S 750 mmHg 87%

    16 Dezember, Samstag

    Zeit Temperatur Niederschläge Wind Luftdruck Luftfeuchtigkeit
    00:00 +10°C° 0,6 mm 9 m/S 749 mmHg 88%
    01:00 +10°C° 0,6 mm 9 m/S 749 mmHg 89%
    02:00 +10°C° 0,8 mm 9 m/S 749 mmHg 89%
    03:00 +10°C° 0,8 mm 8 m/S 749 mmHg 89%
    04:00 +10°C° 0,8 mm 8 m/S 749 mmHg 89%
    05:00 +10°C° 1,3 mm 8 m/S 749 mmHg 90%
    06:00 +11°C° 1,3 mm 7 m/S 749 mmHg 91%
    07:00 +11°C° 1,3 mm 7 m/S 750 mmHg 91%
    08:00 +11°C° 2,1 mm 6 m/S 750 mmHg 91%
    09:00 +11°C° 2,1 mm 6 m/S 750 mmHg 91%
    10:00 +12°C° 2,1 mm 5 m/S 750 mmHg 91%
    11:00 +12°C° 3,1 mm 5 m/S 750 mmHg 92%
    12:00 +12°C° 3,1 mm 4 m/S 750 mmHg 93%
    13:00 +12°C° 3,1 mm 3 m/S 750 mmHg 94%
    14:00 +11°C° 1,9 mm 3 m/S 750 mmHg 93%
    15:00 +11°C° 1,9 mm 3 m/S 750 mmHg 93%
    16:00 +10°C° 1,9 mm 2 m/S 750 mmHg 92%
    17:00 +10°C° 1,8 mm 3 m/S 750 mmHg 91%
    18:00 +10°C° 1,8 mm 3 m/S 750 mmHg 90%
    19:00 +10°C° 1,8 mm 4 m/S 751 mmHg 89%
    20:00 +10°C° 1,1 mm 3 m/S 751 mmHg 89%
    21:00 +10°C° 1,1 mm 2 m/S 750 mmHg 89%
    22:00 +10°C° 1,1 mm 2 m/S 750 mmHg 88%
    23:00 +9°C° 0,9 mm 2 m/S 750 mmHg 89%
    Mehr zeigen